TELSTAR 18V (APSTAR 5C)

Last updated on Nov. 29, 2020, 6:16 a.m. UTC

1 43611U 18069A   20333.51160712 -.00000275  00000-0  00000+0 0  9997
2 43611   0.0154 308.9860 0002177 292.2818 148.7914  1.00272397  8294
UTC
Height (km)
Latitude
Longitude
Inclination
Orbital Period
UTC large
Height (km)
Speed (km/s)
/
Latitude / Longitude
Inclination (degrees)
Orbital Period (minutes)
Azimuth
Elevation
Range (km)
Doppler Factor
iOS Compass Heading
iOS Angle

Next 30 passes for location: Hong Kong

Rise time Rise Azimuth (degrees) Set time Set Azimuth (degrees) Duration Max altitude (degrees)

No matching passes for this satellites